| time (UTC) | temp F | wind direction | speed knots | gust knots | rain 1hr in | rain 24hr in | rain mn in | humidity % | barometer mb |
| 20260508104552 | 46 | 261 | 0.9 | 1.7 | 0.00 | 0.00 | 0.00 | 92 | 1018.8 |
| 20260508103050 | 46 | 0 | 0.0 | 0.9 | 0.00 | 0.00 | 0.00 | 92 | 1018.6 |
| 20260508101547 | 46 | 0 | 0.0 | 0.9 | 0.00 | 0.00 | 0.00 | 91 | 1018.5 |
| 20260508100043 | 46 | 0 | 0.9 | 1.7 | 0.00 | 0.00 | 0.00 | 90 | 1018.4 |
| 20260508094547 | 47 | 261 | 0.9 | 2.6 | 0.00 | 0.00 | 0.00 | 91 | 1018.3 |
| 20260508093054 | 46 | 261 | 0.9 | 1.7 | 0.00 | 0.00 | 0.00 | 92 | 1018.2 |
| 20260508091557 | 46 | 261 | 0.9 | 2.6 | 0.00 | 0.00 | 0.00 | 92 | 1018.1 |
| 20260508090059 | 46 | 0 | 0.0 | 1.7 | 0.00 | 0.00 | 0.00 | 90 | 1018.0 |
| 20260508084547 | 47 | 0 | 0.0 | 1.7 | 0.00 | 0.00 | 0.00 | 89 | 1017.9 |
| 20260508083044 | 48 | 0 | 0.0 | 1.7 | 0.00 | 0.00 | 0.00 | 89 | 1017.9 |
| 20260508081555 | 48 | 244 | 1.7 | 2.6 | 0.00 | 0.00 | 0.00 | 88 | 1017.8 |
| 20260508080052 | 48 | 244 | 0.9 | 2.6 | 0.00 | 0.00 | 0.00 | 87 | 1017.8 |
| 20260508074549 | 49 | 0 | 0.0 | 1.7 | 0.00 | 0.00 | 0.00 | 86 | 1017.8 |
| 20260508073054 | 50 | 247 | 0.9 | 1.7 | 0.00 | 0.00 | 0.00 | 83 | 1017.8 |
| 20260508071555 | 51 | 263 | 0.9 | 2.6 | 0.00 | 0.00 | 0.00 | 82 | 1017.8 |
| 20260508070056 | 50 | 236 | 0.9 | 2.6 | 0.00 | 0.00 | 0.00 | 84 | 1017.7 |
| 20260508064544 | 50 | 236 | 0.9 | 2.6 | 0.00 | 0.00 | 0.00 | 85 | 1017.7 |
| 20260508063043 | 51 | 236 | 1.7 | 2.6 | 0.00 | 0.00 | 0.00 | 83 | 1017.7 |
| 20260508061548 | 51 | 242 | 0.9 | 3.5 | 0.00 | 0.00 | 0.00 | 82 | 1017.7 |
| 20260508060048 | 52 | 222 | 0.9 | 2.6 | 0.00 | 0.00 | 0.00 | 82 | 1017.9 |
| 20260508054550 | 53 | 273 | 0.9 | 1.7 | 0.00 | 0.00 | 0.00 | 79 | 1017.9 |
| 20260508053051 | 54 | 0 | 0.0 | 1.7 | 0.00 | 0.00 | 0.00 | 78 | 1018.1 |
| 20260508051545 | 55 | 294 | 0.0 | 3.5 | 0.00 | 0.00 | 0.00 | 76 | 1018.0 |
| 20260508050043 | 56 | 271 | 2.6 | 6.1 | 0.00 | 0.00 | 0.00 | 75 | 1017.8 |
| 20260508044548 | 56 | 102 | 1.7 | 3.5 | 0.00 | 0.00 | 0.00 | 76 | 1017.8 |
| 20260508043048 | 56 | 146 | 0.9 | 4.3 | 0.00 | 0.00 | 0.00 | 76 | 1017.8 |
| 20260508041547 | 56 | 225 | 1.7 | 4.3 | 0.00 | 0.00 | 0.00 | 78 | 1017.9 |
| 20260508040045 | 58 | 269 | 0.9 | 2.6 | 0.00 | 0.00 | 0.00 | 76 | 1017.6 |
| 20260508034543 | 60 | 300 | 0.0 | 3.5 | 0.00 | 0.00 | 0.00 | 71 | 1017.5 |
| 20260508033106 | 60 | 262 | 0.9 | 2.6 | 0.00 | 0.00 | 0.00 | 72 | 1017.4 |
| 20260508031547 | 61 | 265 | 0.9 | 3.5 | 0.00 | 0.00 | 0.00 | 73 | 1017.3 |
| 20260508030100 | 62 | 251 | 1.7 | 3.5 | 0.00 | 0.00 | 0.00 | 72 | 1017.3 |
| 20260508024550 | 65 | 246 | 0.9 | 2.6 | 0.00 | 0.00 | 0.00 | 69 | 1017.0 |
| 20260508023042 | 67 | 269 | 0.9 | 2.6 | 0.00 | 0.00 | 0.00 | 66 | 1017.1 |
| 20260508021547 | 69 | 161 | 0.0 | 1.7 | 0.00 | 0.00 | 0.00 | 59 | 1017.0 |
| 20260508020104 | 69 | 161 | 0.9 | 2.6 | 0.00 | 0.00 | 0.00 | 57 | 1017.0 |
| 20260508014554 | 70 | 90 | 1.7 | 3.5 | 0.00 | 0.00 | 0.00 | 55 | 1017.1 |
| 20260508013056 | 70 | 103 | 0.0 | 2.6 | 0.00 | 0.00 | 0.00 | 56 | 1017.3 |
| 20260508011545 | 70 | 63 | 0.0 | 1.7 | 0.00 | 0.00 | 0.00 | 53 | 1017.4 |
| 20260508010041 | 70 | 0 | 0.9 | 3.5 | 0.00 | 0.00 | 0.00 | 56 | 1017.6 |
| 20260508004542 | 69 | 63 | 0.9 | 3.5 | 0.00 | 0.00 | 0.00 | 57 | 1017.6 |
| 20260508003045 | 69 | 87 | 0.9 | 5.2 | 0.00 | 0.00 | 0.00 | 60 | 1017.7 |
| 20260508001552 | 69 | 0 | 1.7 | 5.2 | 0.00 | 0.00 | 0.00 | 56 | 1017.8 |
| 20260508000048 | 69 | 24 | 1.7 | 7.8 | 0.00 | 0.00 | 0.00 | 56 | 1017.9 |
| 20260507234542 | 68 | 89 | 0.9 | 7.0 | 0.00 | 0.00 | 0.00 | 55 | 1017.9 |
| 20260507233049 | 68 | 19 | 2.6 | 7.0 | 0.00 | 0.00 | 0.00 | 55 | 1018.3 |
| 20260507231547 | 68 | 81 | 1.7 | 6.1 | 0.00 | 0.00 | 0.00 | 54 | 1018.4 |
| 20260507230052 | 68 | 97 | 2.6 | 6.1 | 0.00 | 0.00 | 0.00 | 59 | 1018.7 |
| 20260507224543 | 67 | 360 | 1.7 | 5.2 | 0.00 | 0.00 | 0.00 | 56 | 1018.9 |
| 20260507223048 | 66 | 53 | 2.6 | 5.2 | 0.00 | 0.00 | 0.00 | 58 | 1019.0 |
| 20260507221542 | 66 | 42 | 2.6 | 7.0 | 0.00 | 0.00 | 0.00 | 61 | 1019.2 |
| 20260507220048 | 65 | 40 | 1.7 | 6.1 | 0.00 | 0.00 | 0.00 | 58 | 1019.5 |
| 20260507214549 | 65 | 37 | 1.7 | 6.1 | 0.00 | 0.00 | 0.00 | 58 | 1019.7 |
| 20260507213053 | 64 | 40 | 1.7 | 5.2 | 0.00 | 0.00 | 0.00 | 61 | 1019.8 |
| 20260507211552 | 64 | 84 | 1.7 | 5.2 | 0.00 | 0.00 | 0.00 | 63 | 1019.9 |
| 20260507210043 | 63 | 51 | 2.6 | 7.8 | 0.00 | 0.00 | 0.00 | 60 | 1020.0 |
| 20260507204548 | 63 | 91 | 1.7 | 6.1 | 0.00 | 0.00 | 0.00 | 59 | 1020.2 |
| 20260507203048 | 62 | 119 | 2.6 | 6.1 | 0.00 | 0.00 | 0.00 | 63 | 1020.4 |
| 20260507201548 | 62 | 105 | 1.7 | 6.1 | 0.00 | 0.00 | 0.00 | 61 | 1020.6 |
| 20260507200047 | 61 | 74 | 2.6 | 6.1 | 0.00 | 0.00 | 0.00 | 62 | 1020.8 |
| 20260507194544 | 61 | 120 | 4.3 | 7.8 | 0.00 | 0.00 | 0.00 | 63 | 1020.9 |
| 20260507193044 | 61 | 46 | 1.7 | 7.0 | 0.00 | 0.00 | 0.00 | 64 | 1020.9 |
| 20260507191543 | 60 | 113 | 2.6 | 7.0 | 0.00 | 0.00 | 0.00 | 62 | 1021.1 |
| 20260507190042 | 59 | 175 | 1.7 | 5.2 | 0.00 | 0.00 | 0.00 | 62 | 1021.2 |
| 20260507184547 | 60 | 96 | 2.6 | 7.0 | 0.00 | 0.00 | 0.00 | 61 | 1021.4 |
| 20260507183053 | 59 | 352 | 1.7 | 5.2 | 0.00 | 0.00 | 0.00 | 62 | 1021.5 |
| 20260507181549 | 59 | 0 | 0.9 | 3.5 | 0.00 | 0.00 | 0.00 | 61 | 1021.6 |
| 20260507180053 | 57 | 188 | 0.0 | 4.3 | 0.00 | 0.00 | 0.00 | 61 | 1021.9 |
| 20260507174548 | 57 | 55 | 0.9 | 4.3 | 0.00 | 0.00 | 0.00 | 62 | 1021.9 |
| 20260507173058 | 56 | 46 | 0.0 | 7.0 | 0.00 | 0.00 | 0.00 | 65 | 1022.1 |
| 20260507171552 | 56 | 11 | 2.6 | 6.1 | 0.00 | 0.00 | 0.00 | 69 | 1022.1 |
| 20260507170051 | 55 | 90 | 0.9 | 7.0 | 0.00 | 0.00 | 0.00 | 67 | 1022.0 |
| 20260507164542 | 54 | 33 | 1.7 | 5.2 | 0.00 | 0.00 | 0.00 | 68 | 1022.1 |
| 20260507163047 | 52 | 25 | 2.6 | 6.1 | 0.00 | 0.00 | 0.00 | 72 | 1022.1 |
| 20260507161553 | 52 | 26 | 2.6 | 7.8 | 0.00 | 0.00 | 0.00 | 74 | 1022.1 |
| 20260507160051 | 51 | 24 | 1.7 | 5.2 | 0.00 | 0.00 | 0.00 | 74 | 1022.0 |
| 20260507154547 | 50 | 339 | 3.5 | 8.7 | 0.00 | 0.00 | 0.00 | 73 | 1022.2 |
| 20260507153047 | 50 | 5 | 0.9 | 7.0 | 0.00 | 0.00 | 0.00 | 76 | 1022.3 |
| 20260507151541 | 49 | 352 | 3.5 | 7.8 | 0.00 | 0.00 | 0.00 | 76 | 1022.2 |
| 20260507150043 | 49 | 15 | 1.7 | 4.3 | 0.00 | 0.00 | 0.00 | 78 | 1022.2 |
| 20260507144549 | 48 | 306 | 0.9 | 7.0 | 0.00 | 0.00 | 0.00 | 79 | 1022.1 |
| 20260507143100 | 48 | 311 | 1.7 | 6.1 | 0.00 | 0.00 | 0.00 | 80 | 1022.1 |
| 20260507141549 | 47 | 289 | 1.7 | 6.1 | 0.00 | 0.00 | 0.00 | 80 | 1022.0 |
| 20260507140046 | 47 | 313 | 2.6 | 7.0 | 0.00 | 0.00 | 0.00 | 81 | 1022.0 |
| 20260507134543 | 47 | 293 | 1.7 | 6.1 | 0.00 | 0.00 | 0.00 | 80 | 1021.9 |
| 20260507133051 | 47 | 328 | 1.7 | 3.5 | 0.00 | 0.00 | 0.00 | 81 | 1021.7 |
| 20260507131550 | 47 | 307 | 0.0 | 3.5 | 0.00 | 0.00 | 0.00 | 81 | 1021.7 |
| 20260507130100 | 47 | 0 | 0.9 | 3.5 | 0.00 | 0.00 | 0.00 | 81 | 1021.7 |
| 20260507124555 | 47 | 0 | 0.0 | 2.6 | 0.00 | 0.00 | 0.00 | 82 | 1021.5 |
| 20260507123046 | 47 | 24 | 0.9 | 2.6 | 0.00 | 0.00 | 0.00 | 80 | 1021.6 |
| 20260507121546 | 48 | 345 | 1.7 | 4.3 | 0.00 | 0.00 | 0.00 | 79 | 1021.7 |
| 20260507120042 | 48 | 347 | 0.0 | 6.1 | 0.00 | 0.00 | 0.00 | 79 | 1021.8 |
| 20260507114548 | 49 | 22 | 2.6 | 7.8 | 0.00 | 0.00 | 0.00 | 78 | 1022.0 |
| 20260507113055 | 49 | 350 | 1.7 | 7.8 | 0.00 | 0.00 | 0.00 | 78 | 1022.0 |
| 20260507111544 | 49 | 324 | 1.7 | 5.2 | 0.00 | 0.00 | 0.00 | 77 | 1022.0 |
| 20260507110057 | 50 | 352 | 1.7 | 7.8 | 0.00 | 0.00 | 0.00 | 78 | 1022.1 |